Time,TemperatureF,DewpointF,PressureIn,WindDirection,WindDirectionDegrees,WindSpeedMPH,WindSpeedGustMPH,Humidity,HourlyPrecipIn,Conditions,Clouds,dailyrainin,SoftwareType,DateUTC
2013-05-30 00:00:00,59.8,55.0,29.66,ENE,61,0.0,2.0,84,0.00,,SCT013,0.00,VWS V13.01,2013-05-30 07:00:00,
2013-05-30 00:02:00,59.9,55.4,29.66,ENE,61,0.0,0.0,85,0.00,,SCT013,0.00,VWS V13.01,2013-05-30 07:02:00,
2013-05-30 00:07:00,60.0,55.5,29.66,ENE,61,0.0,0.0,85,0.00,,SCT013,0.00,VWS V13.01,2013-05-30 07:07:00,
2013-05-30 00:12:00,60.0,55.2,29.66,ENE,61,0.0,0.0,84,0.00,,SCT013,0.00,VWS V13.01,2013-05-30 07:12:00,
2013-05-30 00:17:00,60.0,55.2,29.66,ENE,61,0.0,1.0,84,0.00,,SCT013,0.00,VWS V13.01,2013-05-30 07:17:00,
2013-05-30 00:22:00,60.2,55.0,29.65,ENE,61,0.0,1.0,83,0.00,,SCT013,0.00,VWS V13.01,2013-05-30 07:22:00,
2013-05-30 00:27:00,60.3,55.5,29.66,ENE,61,0.0,1.0,84,0.00,,SCT013,0.00,VWS V13.01,2013-05-30 07:27:00,
2013-05-30 00:30:00,60.3,55.5,29.65,ENE,61,0.0,1.0,84,0.00,,SCT013,0.00,VWS V13.01,2013-05-30 07:30:00,
2013-05-30 00:32:00,60.4,55.5,29.65,ENE,61,0.0,1.0,84,0.00,,SCT013,0.00,VWS V13.01,2013-05-30 07:32:00,
2013-05-30 00:37:00,60.2,55.0,29.65,ENE,61,0.0,1.0,83,0.00,,SCT013,0.00,VWS V13.01,2013-05-30 07:37:00,
2013-05-30 00:42:00,60.0,54.8,29.65,ENE,61,0.0,1.0,83,0.00,,SCT013,0.00,VWS V13.01,2013-05-30 07:42:00,
2013-05-30 00:47:00,59.8,55.0,29.65,ENE,61,0.0,1.0,84,0.00,,SCT013,0.00,VWS V13.01,2013-05-30 07:47:00,
2013-05-30 00:52:00,59.8,55.0,29.65,ENE,61,0.0,1.0,84,0.00,,CLR,0.00,VWS V13.01,2013-05-30 07:52:00,
2013-05-30 00:57:00,59.7,54.9,29.65,ENE,61,0.0,1.0,84,0.00,,CLR,0.00,VWS V13.01,2013-05-30 07:57:00,
2013-05-30 01:00:00,59.7,55.2,29.65,ENE,60,0.0,1.0,85,0.00,,CLR,0.00,VWS V13.01,2013-05-30 08:00:00,
2013-05-30 01:02:00,59.7,55.2,29.65,ENE,60,0.0,0.0,85,0.00,,CLR,0.00,VWS V13.01,2013-05-30 08:02:00,
2013-05-30 01:07:00,59.7,55.8,29.65,ENE,60,0.0,0.0,87,0.00,,CLR,0.00,VWS V13.01,2013-05-30 08:07:00,
2013-05-30 01:12:00,59.7,56.2,29.65,ENE,60,0.0,0.0,88,0.00,,CLR,0.00,VWS V13.01,2013-05-30 08:12:00,
2013-05-30 01:17:00,59.7,56.2,29.65,ENE,60,0.0,0.0,88,0.00,,CLR,0.00,VWS V13.01,2013-05-30 08:17:00,
2013-05-30 01:22:00,59.8,56.6,29.65,ENE,60,0.0,0.0,89,0.00,,CLR,0.00,VWS V13.01,2013-05-30 08:22:00,
2013-05-30 01:27:00,59.7,56.5,29.65,ENE,60,0.0,0.0,89,0.00,,CLR,0.00,VWS V13.01,2013-05-30 08:27:00,
2013-05-30 01:30:00,59.7,56.5,29.64,ENE,60,0.0,0.0,89,0.00,,CLR,0.00,VWS V13.01,2013-05-30 08:30:00,
2013-05-30 01:32:00,59.7,56.8,29.64,ENE,60,0.0,0.0,90,0.00,,CLR,0.00,VWS V13.01,2013-05-30 08:32:00,
2013-05-30 01:37:00,59.4,55.2,29.64,ENE,60,0.0,1.0,86,0.00,,CLR,0.00,VWS V13.01,2013-05-30 08:37:00,
2013-05-30 01:42:00,59.2,55.0,29.64,ENE,60,0.0,1.0,86,0.00,,CLR,0.00,VWS V13.01,2013-05-30 08:42:00,
2013-05-30 01:47:00,59.0,54.8,29.64,ENE,60,0.0,1.0,86,0.00,,CLR,0.00,VWS V13.01,2013-05-30 08:47:00,
2013-05-30 01:52:00,58.7,54.5,29.64,ENE,60,0.0,1.0,86,0.00,,CLR,0.00,VWS V13.01,2013-05-30 08:52:00,
2013-05-30 01:57:00,58.6,54.8,29.64,ENE,60,0.0,1.0,87,0.00,,CLR,0.00,VWS V13.01,2013-05-30 08:57:00,
2013-05-30 02:00:00,58.5,54.7,29.64,ENE,60,0.0,1.0,87,0.00,,CLR,0.00,VWS V13.01,2013-05-30 09:00:00,
2013-05-30 02:02:00,58.5,55.0,29.64,ENE,60,0.0,0.0,88,0.00,,CLR,0.00,VWS V13.01,2013-05-30 09:02:00,
2013-05-30 02:07:00,58.4,54.9,29.64,ENE,60,0.0,0.0,88,0.00,,CLR,0.00,VWS V13.01,2013-05-30 09:07:00,
2013-05-30 02:12:00,58.3,55.1,29.64,ENE,60,0.0,0.0,89,0.00,,CLR,0.00,VWS V13.01,2013-05-30 09:12:00,
2013-05-30 02:17:00,58.3,55.1,29.64,ENE,60,0.0,0.0,89,0.00,,CLR,0.00,VWS V13.01,2013-05-30 09:17:00,
2013-05-30 02:22:00,58.2,55.0,29.64,ENE,60,0.0,0.0,89,0.00,,CLR,0.00,VWS V13.01,2013-05-30 09:22:00,
2013-05-30 02:27:00,58.1,54.3,29.64,ENE,60,1.0,1.0,87,0.00,,CLR,0.00,VWS V13.01,2013-05-30 09:27:00,
2013-05-30 02:30:00,57.9,54.1,29.64,ENE,60,0.0,1.0,87,0.00,,CLR,0.00,VWS V13.01,2013-05-30 09:30:00,
2013-05-30 02:32:00,57.8,54.0,29.64,ENE,60,0.0,0.0,87,0.00,,CLR,0.00,VWS V13.01,2013-05-30 09:32:00,
2013-05-30 02:37:00,57.8,54.3,29.64,ENE,60,0.0,0.0,88,0.00,,CLR,0.00,VWS V13.01,2013-05-30 09:37:00,
2013-05-30 02:42:00,57.8,54.3,29.64,ENE,60,0.0,0.0,88,0.00,,CLR,0.00,VWS V13.01,2013-05-30 09:42:00,
2013-05-30 02:47:00,57.9,55.0,29.64,ENE,60,0.0,0.0,90,0.00,,CLR,0.00,VWS V13.01,2013-05-30 09:47:00,
2013-05-30 02:52:00,58.0,55.1,29.64,ENE,60,0.0,0.0,90,0.00,,CLR,0.00,VWS V13.01,2013-05-30 09:52:00,
2013-05-30 02:57:00,58.0,55.1,29.64,ENE,60,0.0,0.0,90,0.00,,CLR,0.00,VWS V13.01,2013-05-30 09:57:00,
2013-05-30 03:00:00,58.1,55.5,29.64,ENE,60,1.0,1.0,91,0.00,,CLR,0.00,VWS V13.01,2013-05-30 10:00:00,
2013-05-30 03:02:00,57.9,54.7,29.64,ENE,60,0.0,1.0,89,0.00,,CLR,0.00,VWS V13.01,2013-05-30 10:02:00,
2013-05-30 03:07:00,57.7,54.5,29.64,ENE,60,0.0,1.0,89,0.00,,CLR,0.00,VWS V13.01,2013-05-30 10:07:00,
2013-05-30 03:12:00,57.4,53.9,29.64,ENE,60,0.0,1.0,88,0.00,,CLR,0.00,VWS V13.01,2013-05-30 10:12:00,
2013-05-30 03:17:00,57.3,54.1,29.64,ENE,60,0.0,1.0,89,0.00,,CLR,0.00,VWS V13.01,2013-05-30 10:17:00,
2013-05-30 03:22:00,57.3,54.1,29.64,ENE,60,0.0,1.0,89,0.00,,CLR,0.00,VWS V13.01,2013-05-30 10:22:00,
2013-05-30 03:27:00,57.3,54.4,29.64,ENE,60,0.0,1.0,90,0.00,,CLR,0.00,VWS V13.01,2013-05-30 10:27:00,
2013-05-30 03:30:00,57.3,54.4,29.64,ENE,60,0.0,1.0,90,0.00,,CLR,0.00,VWS V13.01,2013-05-30 10:30:00,
2013-05-30 03:32:00,57.4,54.8,29.64,ENE,60,0.0,0.0,91,0.00,,CLR,0.00,VWS V13.01,2013-05-30 10:32:00,
2013-05-30 03:37:00,57.3,54.4,29.64,ENE,60,0.0,1.0,90,0.00,,CLR,0.00,VWS V13.01,2013-05-30 10:37:00,
2013-05-30 03:42:00,57.0,53.5,29.64,ENE,60,0.0,1.0,88,0.00,,CLR,0.00,VWS V13.01,2013-05-30 10:42:00,
2013-05-30 03:47:00,56.5,53.0,29.64,ENE,60,0.0,1.0,88,0.00,,CLR,0.00,VWS V13.01,2013-05-30 10:47:00,
2013-05-30 03:52:00,56.3,52.8,29.64,ENE,60,1.0,1.0,88,0.00,,CLR,0.00,VWS V13.01,2013-05-30 10:52:00,
2013-05-30 03:57:00,56.1,52.9,29.64,ENE,60,0.0,2.0,89,0.00,,CLR,0.00,VWS V13.01,2013-05-30 10:57:00,
2013-05-30 04:00:00,56.1,52.9,29.64,ENE,60,0.0,2.0,89,0.00,,CLR,0.00,VWS V13.01,2013-05-30 11:00:00,
2013-05-30 04:02:00,56.2,53.3,29.64,ENE,60,0.0,1.0,90,0.00,,CLR,0.00,VWS V13.01,2013-05-30 11:02:00,
2013-05-30 04:07:00,56.4,53.5,29.64,ENE,60,0.0,2.0,90,0.00,,CLR,0.00,VWS V13.01,2013-05-30 11:07:00,
2013-05-30 04:12:00,56.4,53.2,29.64,ENE,60,0.0,2.0,89,0.00,,CLR,0.00,VWS V13.01,2013-05-30 11:12:00,
2013-05-30 04:17:00,56.5,53.6,29.64,ENE,60,0.0,2.0,90,0.00,,CLR,0.00,VWS V13.01,2013-05-30 11:17:00,
2013-05-30 04:22:00,56.5,53.6,29.64,ENE,60,0.0,2.0,90,0.00,,CLR,0.00,VWS V13.01,2013-05-30 11:22:00,
2013-05-30 04:27:00,56.4,53.5,29.65,ENE,60,0.0,2.0,90,0.00,,CLR,0.00,VWS V13.01,2013-05-30 11:27:00,
2013-05-30 04:30:00,56.4,53.5,29.65,ENE,60,0.0,2.0,90,0.00,,CLR,0.00,VWS V13.01,2013-05-30 11:30:00,
2013-05-30 04:32:00,56.4,53.5,29.64,ENE,60,0.0,0.0,90,0.00,,CLR,0.00,VWS V13.01,2013-05-30 11:32:00,
2013-05-30 04:38:00,56.4,53.5,29.65,ENE,60,0.0,0.0,90,0.00,,CLR,0.00,VWS V13.01,2013-05-30 11:38:00,
2013-05-30 04:43:00,56.3,53.4,29.65,ENE,60,0.0,0.0,90,0.00,,CLR,0.00,VWS V13.01,2013-05-30 11:43:00,
2013-05-30 04:48:00,56.2,53.0,29.65,ENE,60,0.0,0.0,89,0.00,,CLR,0.00,VWS V13.01,2013-05-30 11:48:00,
2013-05-30 04:53:00,56.0,52.8,29.65,ENE,60,0.0,0.0,89,0.00,,CLR,0.00,VWS V13.01,2013-05-30 11:53:00,
2013-05-30 04:58:00,55.9,52.7,29.65,ENE,60,0.0,1.0,89,0.00,,CLR,0.00,VWS V13.01,2013-05-30 11:58:00,
2013-05-30 05:00:00,55.9,52.7,29.65,ENE,60,0.0,1.0,89,0.00,,CLR,0.00,VWS V13.01,2013-05-30 12:00:00,
2013-05-30 05:03:00,56.0,53.1,29.65,ENE,60,0.0,0.0,90,0.00,,CLR,0.00,VWS V13.01,2013-05-30 12:03:00,
2013-05-30 05:08:00,56.1,53.5,29.65,ENE,60,0.0,0.0,91,0.00,,CLR,0.00,VWS V13.01,2013-05-30 12:08:00,
2013-05-30 05:13:00,56.1,53.2,29.64,ENE,60,0.0,1.0,90,0.00,,CLR,0.00,VWS V13.01,2013-05-30 12:13:00,
2013-05-30 05:18:00,56.1,53.2,29.65,ENE,60,0.0,1.0,90,0.00,,CLR,0.00,VWS V13.01,2013-05-30 12:18:00,
2013-05-30 05:23:00,56.0,53.1,29.65,ENE,60,0.0,1.0,90,0.00,,CLR,0.00,VWS V13.01,2013-05-30 12:23:00,
2013-05-30 05:28:00,56.0,53.1,29.65,ENE,60,0.0,1.0,90,0.00,,CLR,0.00,VWS V13.01,2013-05-30 12:28:00,
2013-05-30 05:30:00,55.9,53.0,29.65,ENE,60,0.0,1.0,90,0.00,,CLR,0.00,VWS V13.01,2013-05-30 12:30:00,
2013-05-30 05:33:00,55.9,53.3,29.65,ENE,60,0.0,0.0,91,0.00,,CLR,0.00,VWS V13.01,2013-05-30 12:33:00,
2013-05-30 05:38:00,56.0,53.7,29.65,ENE,60,0.0,0.0,92,0.00,,CLR,0.00,VWS V13.01,2013-05-30 12:38:00,
2013-05-30 05:43:00,56.2,53.9,29.65,ENE,60,0.0,1.0,92,0.00,,CLR,0.00,VWS V13.01,2013-05-30 12:43:00,
2013-05-30 05:48:00,55.5,52.6,29.65,ENE,60,0.0,2.0,90,0.00,,CLR,0.00,VWS V13.01,2013-05-30 12:48:00,
2013-05-30 05:53:00,55.2,52.6,29.66,ENE,60,0.0,2.0,91,0.00,,CLR,0.00,VWS V13.01,2013-05-30 12:53:00,
2013-05-30 05:58:00,55.2,52.9,29.66,ENE,60,0.0,2.0,92,0.00,,CLR,0.00,VWS V13.01,2013-05-30 12:58:00,
2013-05-30 06:00:00,55.4,53.1,29.66,ENE,60,0.0,2.0,92,0.00,,CLR,0.00,VWS V13.01,2013-05-30 13:00:00,
2013-05-30 06:03:00,55.6,53.6,29.66,ENE,60,0.0,0.0,93,0.00,,CLR,0.00,VWS V13.01,2013-05-30 13:03:00,
2013-05-30 06:08:00,56.0,54.0,29.66,ENE,60,0.0,1.0,93,0.00,,CLR,0.00,VWS V13.01,2013-05-30 13:08:00,
2013-05-30 06:13:00,56.2,54.5,29.66,ENE,60,0.0,1.0,94,0.00,,CLR,0.00,VWS V13.01,2013-05-30 13:13:00,
2013-05-30 06:18:00,56.6,54.9,29.66,ENE,60,0.0,1.0,94,0.00,,CLR,0.00,VWS V13.01,2013-05-30 13:18:00,
2013-05-30 06:23:00,56.8,55.1,29.66,ENE,60,0.0,1.0,94,0.00,,CLR,0.00,VWS V13.01,2013-05-30 13:23:00,
2013-05-30 06:28:00,56.8,55.1,29.67,ENE,60,0.0,1.0,94,0.00,,CLR,0.00,VWS V13.01,2013-05-30 13:28:00,
2013-05-30 06:30:00,56.8,55.1,29.67,ENE,60,0.0,1.0,94,0.00,,CLR,0.00,VWS V13.01,2013-05-30 13:30:00,
2013-05-30 06:33:00,56.8,55.1,29.67,ENE,60,0.0,0.0,94,0.00,,CLR,0.00,VWS V13.01,2013-05-30 13:33:00,
2013-05-30 06:38:00,56.9,54.9,29.67,ENE,60,0.0,0.0,93,0.00,,CLR,0.00,VWS V13.01,2013-05-30 13:38:00,
2013-05-30 06:43:00,57.0,55.0,29.67,ENE,60,0.0,0.0,93,0.00,,CLR,0.00,VWS V13.01,2013-05-30 13:43:00,
2013-05-30 06:48:00,57.2,55.2,29.67,NE,52,0.0,1.0,93,0.00,,CLR,0.00,VWS V13.01,2013-05-30 13:48:00,
2013-05-30 06:53:00,57.5,55.8,29.67,NE,52,0.0,1.0,94,0.00,,SCT250,0.00,VWS V13.01,2013-05-30 13:53:00,
2013-05-30 06:58:00,57.5,55.5,29.67,NE,52,0.0,1.0,93,0.00,,SCT250,0.00,VWS V13.01,2013-05-30 13:58:00,
2013-05-30 07:00:00,57.5,55.5,29.68,NE,52,0.0,1.0,93,0.00,,SCT250,0.00,VWS V13.01,2013-05-30 14:00:00,
2013-05-30 07:03:00,57.6,55.6,29.68,NE,52,0.0,0.0,93,0.00,,SCT250,0.00,VWS V13.01,2013-05-30 14:03:00,
2013-05-30 07:08:00,57.7,55.7,29.68,NE,52,0.0,1.0,93,0.00,,SCT250,0.00,VWS V13.01,2013-05-30 14:08:00,
2013-05-30 07:13:00,57.8,55.8,29.68,NE,52,0.0,1.0,93,0.00,,SCT250,0.00,VWS V13.01,2013-05-30 14:13:00,
2013-05-30 07:18:00,58.0,56.0,29.69,NE,52,0.0,1.0,93,0.00,,SCT250,0.00,VWS V13.01,2013-05-30 14:18:00,
2013-05-30 07:23:00,58.2,56.2,29.69,NE,45,0.0,1.0,93,0.00,,SCT250,0.00,VWS V13.01,2013-05-30 14:23:00,
2013-05-30 07:28:00,58.3,56.3,29.69,NE,45,0.0,1.0,93,0.00,,SCT250,0.00,VWS V13.01,2013-05-30 14:28:00,
2013-05-30 07:30:00,58.3,56.3,29.69,NE,45,0.0,1.0,93,0.00,,SCT250,0.00,VWS V13.01,2013-05-30 14:30:00,
2013-05-30 07:33:00,58.4,56.4,29.70,WNW,291,2.0,2.0,93,0.00,,SCT250,0.00,VWS V13.01,2013-05-30 14:33:00,
2013-05-30 07:38:00,58.4,56.4,29.70,West,259,0.0,2.0,93,0.00,,SCT250,0.00,VWS V13.01,2013-05-30 14:38:00,
2013-05-30 07:43:00,58.4,56.4,29.69,West,259,0.0,2.0,93,0.00,,SCT250,0.00,VWS V13.01,2013-05-30 14:43:00,
2013-05-30 07:48:00,58.6,56.6,29.70,West,259,1.0,2.0,93,0.00,,SCT250,0.00,VWS V13.01,2013-05-30 14:48:00,
2013-05-30 07:53:00,58.8,56.8,29.70,West,259,0.0,2.0,93,0.00,,BKN019,0.00,VWS V13.01,2013-05-30 14:53:00,
2013-05-30 07:58:00,59.0,56.7,29.70,West,259,1.0,2.0,92,0.00,,BKN019,0.00,VWS V13.01,2013-05-30 14:58:00,
2013-05-30 08:00:00,59.0,56.7,29.70,West,259,0.0,2.0,92,0.00,,BKN019,0.00,VWS V13.01,2013-05-30 15:00:00,
2013-05-30 08:03:00,59.1,56.8,29.71,WNW,302,1.0,3.0,92,0.00,,BKN019,0.00,VWS V13.01,2013-05-30 15:03:00,
2013-05-30 08:08:00,59.3,57.0,29.71,West,269,1.0,3.0,92,0.00,,BKN019,0.00,VWS V13.01,2013-05-30 15:08:00,
2013-05-30 08:13:00,59.4,56.8,29.71,West,281,1.0,3.0,91,0.00,,BKN019,0.00,VWS V13.01,2013-05-30 15:13:00,
2013-05-30 08:18:00,59.5,56.9,29.71,WNW,284,0.0,3.0,91,0.00,,BKN019,0.00,VWS V13.01,2013-05-30 15:18:00,
2013-05-30 08:23:00,59.5,56.9,29.71,WSW,246,0.0,3.0,91,0.00,,BKN019,0.00,VWS V13.01,2013-05-30 15:23:00,
2013-05-30 08:28:00,59.7,56.8,29.71,WNW,294,1.0,3.0,90,0.00,,BKN019,0.00,VWS V13.01,2013-05-30 15:28:00,
2013-05-30 08:30:00,59.7,56.8,29.71,WNW,298,0.0,3.0,90,0.00,,BKN019,0.00,VWS V13.01,2013-05-30 15:30:00,
2013-05-30 08:33:00,59.8,56.9,29.71,West,277,2.0,4.0,90,0.00,,BKN019,0.00,VWS V13.01,2013-05-30 15:33:00,
2013-05-30 08:38:00,60.0,56.8,29.71,West,260,1.0,4.0,89,0.00,,BKN019,0.00,VWS V13.01,2013-05-30 15:38:00,
2013-05-30 08:44:00,60.2,57.0,29.72,West,264,0.0,4.0,89,0.00,,BKN019,0.00,VWS V13.01,2013-05-30 15:44:00,
2013-05-30 08:49:00,60.6,57.0,29.72,WSW,247,3.0,4.0,88,0.00,,BKN019,0.00,VWS V13.01,2013-05-30 15:49:00,
2013-05-30 08:54:00,61.1,57.2,29.72,WSW,238,1.0,4.0,87,0.00,,BKN019,0.00,VWS V13.01,2013-05-30 15:54:00,
2013-05-30 08:59:00,61.6,57.4,29.72,WSW,246,1.0,4.0,86,0.00,,BKN019,0.00,VWS V13.01,2013-05-30 15:59:00,
2013-05-30 09:00:00,61.7,57.5,29.72,WSW,253,0.0,4.0,86,0.00,,BKN019,0.00,VWS V13.01,2013-05-30 16:00:00,
2013-05-30 09:04:00,62.3,58.1,29.71,North,5,1.0,2.0,86,0.00,,BKN019,0.00,VWS V13.01,2013-05-30 16:04:00,
2013-05-30 09:09:00,63.0,58.1,29.72,WSW,241,2.0,5.0,84,0.00,,BKN019,0.00,VWS V13.01,2013-05-30 16:09:00,
2013-05-30 09:14:00,62.9,57.7,29.71,SW,220,0.0,5.0,83,0.00,,BKN019,0.00,VWS V13.01,2013-05-30 16:14:00,
2013-05-30 09:19:00,62.9,58.0,29.71,WSW,253,1.0,5.0,84,0.00,,BKN019,0.00,VWS V13.01,2013-05-30 16:19:00,
2013-05-30 09:24:00,63.3,58.4,29.71,West,281,0.0,5.0,84,0.00,,BKN019,0.00,VWS V13.01,2013-05-30 16:24:00,
2013-05-30 09:29:00,64.0,58.4,29.71,West,281,0.0,5.0,82,0.00,,BKN019,0.00,VWS V13.01,2013-05-30 16:29:00,
2013-05-30 09:30:00,64.1,58.5,29.71,West,281,1.0,5.0,82,0.00,,BKN019,0.00,VWS V13.01,2013-05-30 16:30:00,
2013-05-30 09:34:00,64.6,58.7,29.71,WNW,283,0.0,3.0,81,0.00,,BKN019,0.00,VWS V13.01,2013-05-30 16:34:00,
2013-05-30 09:39:00,65.0,59.0,29.71,West,277,2.0,5.0,81,0.00,,BKN019,0.00,VWS V13.01,2013-05-30 16:39:00,
2013-05-30 09:44:00,65.4,58.7,29.71,WNW,297,3.0,5.0,79,0.00,,BKN019,0.00,VWS V13.01,2013-05-30 16:44:00,
2013-05-30 09:49:00,65.7,58.7,29.71,West,265,1.0,5.0,78,0.00,,BKN019,0.00,VWS V13.01,2013-05-30 16:49:00,
2013-05-30 09:54:00,66.1,59.0,29.71,West,275,0.0,5.0,78,0.00,,OVC017,0.00,VWS V13.01,2013-05-30 16:54:00,
2013-05-30 09:59:00,66.7,58.9,29.71,WNW,302,2.0,5.0,76,0.00,,OVC017,0.00,VWS V13.01,2013-05-30 16:59:00,
2013-05-30 10:00:00,66.8,59.0,29.71,WNW,283,0.0,5.0,76,0.00,,OVC017,0.00,VWS V13.01,2013-05-30 17:00:00,
2013-05-30 10:04:00,67.0,58.8,29.71,WNW,292,0.0,4.0,75,0.00,,OVC017,0.00,VWS V13.01,2013-05-30 17:04:00,
2013-05-30 10:09:00,67.2,59.0,29.71,SW,227,0.0,4.0,75,0.00,,OVC017,0.00,VWS V13.01,2013-05-30 17:09:00,
2013-05-30 10:14:00,67.9,58.9,29.71,West,273,2.0,4.0,73,0.00,,OVC017,0.00,VWS V13.01,2013-05-30 17:14:00,
2013-05-30 10:19:00,68.5,59.1,29.71,WNW,286,0.0,4.0,72,0.00,,OVC017,0.00,VWS V13.01,2013-05-30 17:19:00,
2013-05-30 10:24:00,69.1,58.9,29.71,WNW,284,0.0,4.0,70,0.00,,OVC017,0.00,VWS V13.01,2013-05-30 17:24:00,
2013-05-30 10:29:00,70.0,59.8,29.71,WNW,293,0.0,4.0,70,0.00,,OVC017,0.00,VWS V13.01,2013-05-30 17:29:00,
2013-05-30 10:30:00,70.1,59.9,29.71,West,275,0.0,4.0,70,0.00,,OVC017,0.00,VWS V13.01,2013-05-30 17:30:00,
2013-05-30 10:34:00,70.6,59.1,29.71,West,262,2.0,5.0,67,0.00,,OVC017,0.00,VWS V13.01,2013-05-30 17:34:00,
2013-05-30 10:39:00,71.0,59.1,29.71,WNW,294,1.0,8.0,66,0.00,,OVC017,0.00,VWS V13.01,2013-05-30 17:39:00,
2013-05-30 10:44:00,71.2,59.3,29.71,WNW,289,1.0,8.0,66,0.00,,OVC017,0.00,VWS V13.01,2013-05-30 17:44:00,
2013-05-30 10:49:00,71.4,58.6,29.71,West,259,1.0,8.0,64,0.00,,OVC017,0.00,VWS V13.01,2013-05-30 17:49:00,
2013-05-30 10:54:00,71.6,57.9,29.71,West,270,4.0,8.0,62,0.00,,SCT250,0.00,VWS V13.01,2013-05-30 17:54:00,
2013-05-30 10:59:00,71.8,58.1,29.72,West,270,2.0,8.0,62,0.00,,SCT250,0.00,VWS V13.01,2013-05-30 17:59:00,
2013-05-30 11:00:00,71.8,58.5,29.72,WSW,251,3.0,8.0,63,0.00,,SCT250,0.00,VWS V13.01,2013-05-30 18:00:00,
2013-05-30 11:04:00,71.9,58.6,29.72,WNW,287,4.0,6.0,63,0.00,,SCT250,0.00,VWS V13.01,2013-05-30 18:04:00,
2013-05-30 11:09:00,72.4,58.2,29.72,WNW,301,2.0,6.0,61,0.00,,SCT250,0.00,VWS V13.01,2013-05-30 18:09:00,
2013-05-30 11:14:00,73.0,59.2,29.71,West,267,0.0,6.0,62,0.00,,SCT250,0.00,VWS V13.01,2013-05-30 18:14:00,
2013-05-30 11:19:00,73.8,59.5,29.71,West,276,0.0,6.0,61,0.00,,SCT250,0.00,VWS V13.01,2013-05-30 18:19:00,
2013-05-30 11:24:00,74.1,59.8,29.72,WSW,252,1.0,6.0,61,0.00,,SCT250,0.00,VWS V13.01,2013-05-30 18:24:00,
2013-05-30 11:29:00,74.4,60.5,29.72,WSW,256,3.0,8.0,62,0.00,,SCT250,0.00,VWS V13.01,2013-05-30 18:29:00,
2013-05-30 11:30:00,74.5,60.2,29.72,WNW,292,5.0,8.0,61,0.00,,SCT250,0.00,VWS V13.01,2013-05-30 18:30:00,
2013-05-30 11:34:00,74.5,60.6,29.72,WNW,285,5.0,6.0,62,0.00,,SCT250,0.00,VWS V13.01,2013-05-30 18:34:00,
2013-05-30 11:39:00,74.1,60.3,29.72,West,264,2.0,8.0,62,0.00,,SCT250,0.00,VWS V13.01,2013-05-30 18:39:00,
2013-05-30 11:44:00,74.0,60.6,29.72,SSW,207,0.0,8.0,63,0.00,,SCT250,0.00,VWS V13.01,2013-05-30 18:44:00,
2013-05-30 11:49:00,73.8,60.9,29.72,WSW,238,2.0,8.0,64,0.00,,SCT250,0.00,VWS V13.01,2013-05-30 18:49:00,
2013-05-30 11:54:00,74.2,61.2,29.72,WNW,288,3.0,8.0,64,0.00,,SCT250,0.00,VWS V13.01,2013-05-30 18:54:00,
2013-05-30 11:59:00,74.7,61.7,29.72,West,281,4.0,8.0,64,0.00,,SCT250,0.00,VWS V13.01,2013-05-30 18:59:00,
2013-05-30 12:00:00,74.8,61.8,29.72,West,269,4.0,8.0,64,0.00,,SCT250,0.00,VWS V13.01,2013-05-30 19:00:00,
2013-05-30 12:04:00,75.0,61.1,29.72,South,179,1.0,7.0,62,0.00,,SCT250,0.00,VWS V13.01,2013-05-30 19:04:00,
2013-05-30 12:09:00,75.2,61.3,29.72,WNW,298,6.0,10.0,62,0.00,,SCT250,0.00,VWS V13.01,2013-05-30 19:09:00,
2013-05-30 12:14:00,75.1,60.8,29.72,WNW,289,5.0,10.0,61,0.00,,SCT250,0.00,VWS V13.01,2013-05-30 19:14:00,
2013-05-30 12:19:00,74.8,60.5,29.72,NW,315,3.0,10.0,61,0.00,,SCT250,0.00,VWS V13.01,2013-05-30 19:19:00,
2013-05-30 12:24:00,74.8,61.4,29.72,WSW,241,2.0,10.0,63,0.00,,SCT250,0.00,VWS V13.01,2013-05-30 19:24:00,
2013-05-30 12:29:00,75.2,60.8,29.72,West,281,5.0,10.0,61,0.00,,SCT250,0.00,VWS V13.01,2013-05-30 19:29:00,
2013-05-30 12:30:00,75.2,60.8,29.72,ENE,71,1.0,10.0,61,0.00,,SCT250,0.00,VWS V13.01,2013-05-30 19:30:00,
2013-05-30 12:34:00,75.3,60.9,29.72,SSW,192,0.0,8.0,61,0.00,,SCT250,0.00,VWS V13.01,2013-05-30 19:34:00,
2013-05-30 12:39:00,75.7,61.3,29.72,WNW,294,6.0,8.0,61,0.00,,SCT250,0.00,VWS V13.01,2013-05-30 19:39:00,
2013-05-30 12:44:00,75.9,61.5,29.72,West,276,5.0,8.0,61,0.00,,SCT250,0.00,VWS V13.01,2013-05-30 19:44:00,
2013-05-30 12:49:00,76.1,61.2,29.72,NNW,331,5.0,8.0,60,0.00,,SCT250,0.00,VWS V13.01,2013-05-30 19:49:00,
2013-05-30 12:54:00,75.9,61.0,29.72,WNW,303,1.0,8.0,60,0.00,,SCT250,0.00,VWS V13.01,2013-05-30 19:54:00,
2013-05-30 12:59:00,75.8,60.9,29.72,South,188,1.0,8.0,60,0.00,,SCT250,0.00,VWS V13.01,2013-05-30 19:59:00,
2013-05-30 13:00:00,75.8,60.9,29.72,West,275,3.0,8.0,60,0.00,,SCT250,0.00,VWS V13.01,2013-05-30 20:00:00,
2013-05-30 13:04:00,75.9,61.5,29.72,WNW,299,4.0,8.0,61,0.00,,SCT250,0.00,VWS V13.01,2013-05-30 20:04:00,
2013-05-30 13:09:00,75.9,61.5,29.72,WNW,285,3.0,8.0,61,0.00,,SCT250,0.00,VWS V13.01,2013-05-30 20:09:00,
2013-05-30 13:14:00,76.2,61.3,29.71,West,281,2.0,8.0,60,0.00,,SCT250,0.00,VWS V13.01,2013-05-30 20:14:00,
2013-05-30 13:19:00,76.4,61.0,29.72,WNW,291,8.0,8.0,59,0.00,,SCT250,0.00,VWS V13.01,2013-05-30 20:19:00,
2013-05-30 13:24:00,76.1,61.2,29.71,WSW,245,0.0,8.0,60,0.00,,SCT250,0.00,VWS V13.01,2013-05-30 20:24:00,
2013-05-30 13:29:00,76.3,60.9,29.71,NW,305,4.0,8.0,59,0.00,,SCT250,0.00,VWS V13.01,2013-05-30 20:29:00,
2013-05-30 13:30:00,76.4,61.0,29.71,West,279,4.0,8.0,59,0.00,,SCT250,0.00,VWS V13.01,2013-05-30 20:30:00,
2013-05-30 13:34:00,76.2,61.3,29.71,West,279,6.0,8.0,60,0.00,,SCT250,0.00,VWS V13.01,2013-05-30 20:34:00,
2013-05-30 13:39:00,76.3,60.9,29.71,WNW,294,2.0,8.0,59,0.00,,SCT250,0.00,VWS V13.01,2013-05-30 20:39:00,
2013-05-30 13:44:00,76.0,60.7,29.71,SW,236,3.0,8.0,59,0.00,,SCT250,0.00,VWS V13.01,2013-05-30 20:44:00,
2013-05-30 13:49:00,76.4,61.0,29.71,WSW,238,4.0,8.0,59,0.00,,SCT250,0.00,VWS V13.01,2013-05-30 20:49:00,
2013-05-30 13:54:00,76.5,61.1,29.71,NW,316,2.0,8.0,59,0.00,,FEW250,0.00,VWS V13.01,2013-05-30 20:54:00,
2013-05-30 13:59:00,76.3,60.9,29.71,West,275,2.0,8.0,59,0.00,,FEW250,0.00,VWS V13.01,2013-05-30 20:59:00,
2013-05-30 14:00:00,76.3,60.9,29.71,West,278,4.0,8.0,59,0.00,,FEW250,0.00,VWS V13.01,2013-05-30 21:00:00,
2013-05-30 14:04:00,76.5,61.1,29.71,West,266,3.0,6.0,59,0.00,,FEW250,0.00,VWS V13.01,2013-05-30 21:04:00,
2013-05-30 14:09:00,76.7,60.8,29.71,WSW,240,0.0,8.0,58,0.00,,FEW250,0.00,VWS V13.01,2013-05-30 21:09:00,
2013-05-30 14:14:00,77.2,60.8,29.71,NW,305,1.0,8.0,57,0.00,,FEW250,0.00,VWS V13.01,2013-05-30 21:14:00,
2013-05-30 14:19:00,77.5,61.1,29.71,WNW,298,1.0,8.0,57,0.00,,FEW250,0.00,VWS V13.01,2013-05-30 21:19:00,
2013-05-30 14:24:00,77.1,60.2,29.70,WNW,290,3.0,8.0,56,0.00,,FEW250,0.00,VWS V13.01,2013-05-30 21:24:00,
2013-05-30 14:29:00,76.8,61.4,29.70,WSW,244,1.0,8.0,59,0.00,,FEW250,0.00,VWS V13.01,2013-05-30 21:29:00,
2013-05-30 14:30:00,76.8,61.4,29.70,WSW,244,1.0,8.0,59,0.00,,FEW250,0.00,VWS V13.01,2013-05-30 21:30:00,
2013-05-30 14:34:00,77.0,60.6,29.70,West,269,1.0,6.0,57,0.00,,FEW250,0.00,VWS V13.01,2013-05-30 21:34:00,
2013-05-30 14:39:00,76.8,60.4,29.70,SW,221,1.0,7.0,57,0.00,,FEW250,0.00,VWS V13.01,2013-05-30 21:39:00,
2013-05-30 14:44:00,77.0,60.6,29.70,West,277,2.0,7.0,57,0.00,,FEW250,0.00,VWS V13.01,2013-05-30 21:44:00,
2013-05-30 14:49:00,77.3,60.9,29.70,WNW,284,3.0,7.0,57,0.00,,FEW250,0.00,VWS V13.01,2013-05-30 21:49:00,
2013-05-30 14:54:00,77.5,60.1,29.70,West,269,3.0,8.0,55,0.00,,FEW250,0.00,VWS V13.01,2013-05-30 21:54:00,
2013-05-30 14:59:00,77.8,60.4,29.70,WNW,283,7.0,9.0,55,0.00,,FEW250,0.00,VWS V13.01,2013-05-30 21:59:00,
2013-05-30 15:00:00,77.8,60.4,29.70,WSW,245,7.0,9.0,55,0.00,,FEW250,0.00,VWS V13.01,2013-05-30 22:00:00,
2013-05-30 15:04:00,76.9,60.0,29.70,NNW,330,4.0,10.0,56,0.00,,FEW250,0.00,VWS V13.01,2013-05-30 22:04:00,
2013-05-30 15:09:00,76.6,60.2,29.70,WNW,284,2.0,10.0,57,0.00,,FEW250,0.00,VWS V13.01,2013-05-30 22:09:00,
2013-05-30 15:14:00,76.5,60.2,29.70,WSW,257,6.0,10.0,57,0.00,,FEW250,0.00,VWS V13.01,2013-05-30 22:14:00,
2013-05-30 15:19:00,76.2,59.9,29.70,West,261,2.0,10.0,57,0.00,,FEW250,0.00,VWS V13.01,2013-05-30 22:19:00,
2013-05-30 15:24:00,75.9,60.1,29.71,West,269,4.0,10.0,58,0.00,,FEW250,0.00,VWS V13.01,2013-05-30 22:24:00,
2013-05-30 15:30:00,75.5,60.2,29.70,WNW,299,6.0,10.0,59,0.00,,FEW250,0.00,VWS V13.01,2013-05-30 22:30:00,
2013-05-30 15:34:00,75.6,59.8,29.70,WNW,300,4.0,8.0,58,0.00,,FEW250,0.00,VWS V13.01,2013-05-30 22:34:00,
2013-05-30 15:40:00,75.5,60.2,29.70,WNW,290,4.0,10.0,59,0.00,,FEW250,0.00,VWS V13.01,2013-05-30 22:40:00,
2013-05-30 15:45:00,75.7,59.9,29.70,WNW,286,2.0,9.0,58,0.00,,FEW250,0.00,VWS V13.01,2013-05-30 22:45:00,
2013-05-30 15:50:00,76.0,60.7,29.70,WNW,284,3.0,9.0,59,0.00,,FEW250,0.00,VWS V13.01,2013-05-30 22:50:00,
2013-05-30 15:55:00,76.1,59.8,29.70,West,261,1.0,9.0,57,0.00,,CLR,0.00,VWS V13.01,2013-05-30 22:55:00,
2013-05-30 16:00:00,76.0,59.7,29.70,WNW,301,1.0,9.0,57,0.00,,CLR,0.00,VWS V13.01,2013-05-30 23:00:00,
2013-05-30 16:05:00,75.8,60.0,29.70,West,265,3.0,6.0,58,0.00,,CLR,0.00,VWS V13.01,2013-05-30 23:05:00,
2013-05-30 16:10:00,75.7,59.9,29.70,WNW,290,6.0,9.0,58,0.00,,CLR,0.00,VWS V13.01,2013-05-30 23:10:00,
2013-05-30 16:15:00,75.2,59.9,29.70,WNW,303,5.0,9.0,59,0.00,,CLR,0.00,VWS V13.01,2013-05-30 23:15:00,
2013-05-30 16:20:00,75.0,59.7,29.70,WNW,296,0.0,9.0,59,0.00,,CLR,0.00,VWS V13.01,2013-05-30 23:20:00,
2013-05-30 16:25:00,75.0,59.7,29.69,West,276,5.0,9.0,59,0.00,,CLR,0.00,VWS V13.01,2013-05-30 23:25:00,
2013-05-30 16:30:00,75.2,59.9,29.69,West,281,1.0,9.0,59,0.00,,CLR,0.00,VWS V13.01,2013-05-30 23:30:00,
2013-05-30 16:35:00,75.1,59.8,29.69,West,279,4.0,5.0,59,0.00,,CLR,0.00,VWS V13.01,2013-05-30 23:35:00,
2013-05-30 16:40:00,75.0,59.7,29.69,WNW,284,5.0,5.0,59,0.00,,CLR,0.00,VWS V13.01,2013-05-30 23:40:00,
2013-05-30 16:45:00,75.3,60.0,29.69,SSW,211,0.0,5.0,59,0.00,,CLR,0.00,VWS V13.01,2013-05-30 23:45:00,
2013-05-30 16:50:00,75.5,59.7,29.69,NW,312,3.0,6.0,58,0.00,,CLR,0.00,VWS V13.01,2013-05-30 23:50:00,
2013-05-30 16:55:00,75.6,59.8,29.69,West,261,2.0,6.0,58,0.00,,CLR,0.00,VWS V13.01,2013-05-30 23:55:00,
2013-05-30 17:00:00,75.4,59.1,29.69,West,261,1.0,7.0,57,0.00,,CLR,0.00,VWS V13.01,2013-05-31 00:00:00,
2013-05-30 17:05:00,75.1,59.3,29.69,North,9,1.0,7.0,58,0.00,,CLR,0.00,VWS V13.01,2013-05-31 00:05:00,
2013-05-30 17:10:00,74.7,59.0,29.69,WNW,300,4.0,7.0,58,0.00,,CLR,0.00,VWS V13.01,2013-05-31 00:10:00,
2013-05-30 17:15:00,74.7,59.4,29.69,West,278,2.0,7.0,59,0.00,,CLR,0.00,VWS V13.01,2013-05-31 00:15:00,
2013-05-30 17:20:00,74.8,59.0,29.69,WNW,285,2.0,7.0,58,0.00,,CLR,0.00,VWS V13.01,2013-05-31 00:20:00,
2013-05-30 17:25:00,74.8,59.0,29.69,WSW,247,3.0,7.0,58,0.00,,CLR,0.00,VWS V13.01,2013-05-31 00:25:00,
2013-05-30 17:30:00,74.4,58.7,29.69,WNW,285,4.0,7.0,58,0.00,,CLR,0.00,VWS V13.01,2013-05-31 00:30:00,
2013-05-30 17:35:00,73.6,58.4,29.69,NW,315,1.0,8.0,59,0.00,,CLR,0.00,VWS V13.01,2013-05-31 00:35:00,
2013-05-30 17:40:00,73.7,59.4,29.69,NW,304,2.0,8.0,61,0.00,,CLR,0.00,VWS V13.01,2013-05-31 00:40:00,
2013-05-30 17:45:00,73.9,58.7,29.69,West,280,0.0,8.0,59,0.00,,CLR,0.00,VWS V13.01,2013-05-31 00:45:00,
2013-05-30 17:50:00,73.7,59.0,29.70,WSW,254,3.0,8.0,60,0.00,,CLR,0.00,VWS V13.01,2013-05-31 00:50:00,
2013-05-30 17:55:00,73.3,59.0,29.69,NW,320,4.0,8.0,61,0.00,,CLR,0.00,VWS V13.01,2013-05-31 00:55:00,
2013-05-30 18:00:00,73.1,58.9,29.70,WNW,293,2.0,8.0,61,0.00,,CLR,0.00,VWS V13.01,2013-05-31 01:00:00,
2013-05-30 18:05:00,72.7,58.5,29.70,WNW,283,2.0,5.0,61,0.00,,CLR,0.00,VWS V13.01,2013-05-31 01:05:00,
2013-05-30 18:10:00,72.2,58.5,29.70,WNW,303,1.0,7.0,62,0.00,,CLR,0.00,VWS V13.01,2013-05-31 01:10:00,
2013-05-30 18:15:00,72.1,58.8,29.70,NW,311,2.0,7.0,63,0.00,,CLR,0.00,VWS V13.01,2013-05-31 01:15:00,
2013-05-30 18:20:00,71.7,58.9,29.70,North,355,0.0,7.0,64,0.00,,CLR,0.00,VWS V13.01,2013-05-31 01:20:00,
2013-05-30 18:25:00,71.3,58.9,29.70,SW,236,0.0,7.0,65,0.00,,CLR,0.00,VWS V13.01,2013-05-31 01:25:00,
2013-05-30 18:30:00,71.0,58.7,29.70,West,259,1.0,7.0,65,0.00,,CLR,0.00,VWS V13.01,2013-05-31 01:30:00,
2013-05-30 18:35:00,70.4,58.9,29.71,WNW,294,0.0,6.0,67,0.00,,CLR,0.00,VWS V13.01,2013-05-31 01:35:00,
2013-05-30 18:40:00,69.7,58.7,29.71,WNW,290,2.0,6.0,68,0.00,,CLR,0.00,VWS V13.01,2013-05-31 01:40:00,
2013-05-30 18:45:00,69.2,58.6,29.71,WNW,289,0.0,6.0,69,0.00,,CLR,0.00,VWS V13.01,2013-05-31 01:45:00,
2013-05-30 18:50:00,68.7,58.5,29.71,West,265,4.0,6.0,70,0.00,,CLR,0.00,VWS V13.01,2013-05-31 01:50:00,
2013-05-30 18:55:00,68.3,58.5,29.71,WNW,300,0.0,6.0,71,0.00,,CLR,0.00,VWS V13.01,2013-05-31 01:55:00,
2013-05-30 19:00:00,68.0,58.7,29.71,WNW,293,3.0,6.0,72,0.00,,CLR,0.00,VWS V13.01,2013-05-31 02:00:00,
2013-05-30 19:05:00,67.7,58.4,29.71,WNW,292,1.0,4.0,72,0.00,,CLR,0.00,VWS V13.01,2013-05-31 02:05:00,
2013-05-30 19:10:00,67.3,58.4,29.71,WSW,240,2.0,4.0,73,0.00,,CLR,0.00,VWS V13.01,2013-05-31 02:10:00,
2013-05-30 19:15:00,66.7,58.2,29.71,NW,309,0.0,6.0,74,0.00,,CLR,0.00,VWS V13.01,2013-05-31 02:15:00,
2013-05-30 19:20:00,66.2,58.0,29.72,WNW,298,0.0,6.0,75,0.00,,CLR,0.00,VWS V13.01,2013-05-31 02:20:00,
2013-05-30 19:25:00,65.6,57.8,29.72,WNW,294,0.0,6.0,76,0.00,,CLR,0.00,VWS V13.01,2013-05-31 02:25:00,
2013-05-30 19:30:00,65.3,57.9,29.72,West,277,0.0,6.0,77,0.00,,CLR,0.00,VWS V13.01,2013-05-31 02:30:00,
2013-05-30 19:35:00,65.0,58.0,29.72,WNW,299,1.0,3.0,78,0.00,,CLR,0.00,VWS V13.01,2013-05-31 02:35:00,
2013-05-30 19:40:00,64.5,57.8,29.72,NW,304,1.0,3.0,79,0.00,,CLR,0.00,VWS V13.01,2013-05-31 02:40:00,
2013-05-30 19:45:00,64.0,57.7,29.72,WNW,286,2.0,4.0,80,0.00,,CLR,0.00,VWS V13.01,2013-05-31 02:45:00,
2013-05-30 19:50:00,63.5,57.6,29.73,NW,304,1.0,4.0,81,0.00,,FEW014,0.00,VWS V13.01,2013-05-31 02:50:00,
2013-05-30 19:55:00,63.1,57.5,29.73,NW,314,1.0,4.0,82,0.00,,FEW014,0.00,VWS V13.01,2013-05-31 02:55:00,
2013-05-30 20:00:00,62.8,57.2,29.73,West,277,0.0,4.0,82,0.00,,FEW014,0.00,VWS V13.01,2013-05-31 03:00:00,
2013-05-30 20:05:00,62.5,57.3,29.73,West,259,0.0,2.0,83,0.00,,FEW014,0.00,VWS V13.01,2013-05-31 03:05:00,
2013-05-30 20:10:00,62.2,57.0,29.73,WNW,298,2.0,4.0,83,0.00,,FEW014,0.00,VWS V13.01,2013-05-31 03:10:00,
2013-05-30 20:15:00,61.9,57.0,29.73,SW,232,0.0,4.0,84,0.00,,FEW014,0.00,VWS V13.01,2013-05-31 03:15:00,
2013-05-30 20:20:00,61.8,56.9,29.73,West,267,0.0,4.0,84,0.00,,FEW014,0.00,VWS V13.01,2013-05-31 03:20:00,
2013-05-30 20:25:00,61.6,57.0,29.73,SSW,200,0.0,4.0,85,0.00,,FEW014,0.00,VWS V13.01,2013-05-31 03:25:00,
2013-05-30 20:30:00,61.4,56.9,29.73,SSW,206,0.0,4.0,85,0.00,,FEW014,0.00,VWS V13.01,2013-05-31 03:30:00,
2013-05-30 20:35:00,61.3,57.1,29.73,WNW,298,0.0,1.0,86,0.00,,FEW014,0.00,VWS V13.01,2013-05-31 03:35:00,
2013-05-30 20:40:00,61.1,56.9,29.73,WNW,287,0.0,2.0,86,0.00,,FEW014,0.00,VWS V13.01,2013-05-31 03:40:00,
2013-05-30 20:45:00,61.0,56.8,29.74,WNW,287,1.0,2.0,86,0.00,,FEW014,0.00,VWS V13.01,2013-05-31 03:45:00,
2013-05-30 20:50:00,60.9,57.0,29.74,WNW,290,0.0,2.0,87,0.00,,FEW014,0.00,VWS V13.01,2013-05-31 03:50:00,
2013-05-30 20:55:00,60.7,56.8,29.74,WNW,290,0.0,2.0,87,0.00,,FEW011,0.00,VWS V13.01,2013-05-31 03:55:00,
2013-05-30 21:00:00,60.6,56.7,29.73,WNW,301,0.0,3.0,87,0.00,,FEW011,0.00,VWS V13.01,2013-05-31 04:00:00,
2013-05-30 21:05:00,60.4,56.5,29.73,WNW,289,1.0,2.0,87,0.00,,FEW011,0.00,VWS V13.01,2013-05-31 04:05:00,
2013-05-30 21:10:00,60.1,56.5,29.74,West,274,1.0,2.0,88,0.00,,FEW011,0.00,VWS V13.01,2013-05-31 04:10:00,
2013-05-30 21:15:00,59.9,56.3,29.74,West,271,0.0,3.0,88,0.00,,FEW011,0.00,VWS V13.01,2013-05-31 04:15:00,
2013-05-30 21:20:00,59.7,56.2,29.74,West,263,1.0,3.0,88,0.00,,FEW011,0.00,VWS V13.01,2013-05-31 04:20:00,
2013-05-30 21:25:00,59.5,56.3,29.75,West,281,1.0,3.0,89,0.00,,FEW011,0.00,VWS V13.01,2013-05-31 04:25:00,
2013-05-30 21:30:00,59.4,56.2,29.75,WNW,297,2.0,4.0,89,0.00,,FEW011,0.00,VWS V13.01,2013-05-31 04:30:00,
2013-05-30 21:35:00,59.1,56.2,29.75,West,280,0.0,3.0,90,0.00,,FEW011,0.00,VWS V13.01,2013-05-31 04:35:00,
2013-05-30 21:40:00,59.1,56.2,29.75,WNW,298,0.0,3.0,90,0.00,,FEW011,0.00,VWS V13.01,2013-05-31 04:40:00,
2013-05-30 21:45:00,59.1,56.2,29.76,WNW,290,0.0,3.0,90,0.00,,FEW011,0.00,VWS V13.01,2013-05-31 04:45:00,
2013-05-30 21:50:00,59.1,56.2,29.75,WNW,286,0.0,3.0,90,0.00,,FEW011,0.00,VWS V13.01,2013-05-31 04:50:00,
2013-05-30 21:55:00,59.1,56.2,29.76,WNW,286,0.0,3.0,90,0.00,,FEW011,0.00,VWS V13.01,2013-05-31 04:55:00,
2013-05-30 22:00:00,59.1,56.2,29.76,West,272,0.0,3.0,90,0.00,,FEW011,0.00,VWS V13.01,2013-05-31 05:00:00,
2013-05-30 22:05:00,59.1,56.2,29.76,WNW,288,1.0,3.0,90,0.00,,FEW011,0.00,VWS V13.01,2013-05-31 05:05:00,
2013-05-30 22:10:00,59.1,56.2,29.76,NW,310,0.0,3.0,90,0.00,,FEW011,0.00,VWS V13.01,2013-05-31 05:10:00,
2013-05-30 22:15:00,59.1,56.2,29.77,NW,309,3.0,3.0,90,0.00,,FEW011,0.00,VWS V13.01,2013-05-31 05:15:00,
2013-05-30 22:20:00,59.1,56.2,29.77,WNW,298,1.0,3.0,90,0.00,,FEW011,0.00,VWS V13.01,2013-05-31 05:20:00,
2013-05-30 22:25:00,59.0,56.1,29.77,WNW,291,0.0,4.0,90,0.00,,FEW011,0.00,VWS V13.01,2013-05-31 05:25:00,
2013-05-30 22:30:00,59.0,56.1,29.77,WNW,294,0.0,4.0,90,0.00,,FEW011,0.00,VWS V13.01,2013-05-31 05:30:00,
2013-05-30 22:35:00,59.0,56.1,29.77,WNW,294,0.0,1.0,90,0.00,,FEW011,0.00,VWS V13.01,2013-05-31 05:35:00,
2013-05-30 22:40:00,58.9,56.0,29.77,WNW,294,0.0,1.0,90,0.00,,FEW011,0.00,VWS V13.01,2013-05-31 05:40:00,
2013-05-30 22:45:00,59.0,56.1,29.76,WNW,294,0.0,1.0,90,0.00,,FEW011,0.00,VWS V13.01,2013-05-31 05:45:00,
2013-05-30 22:50:00,59.0,56.1,29.76,WNW,294,1.0,1.0,90,0.00,,BKN013,0.00,VWS V13.01,2013-05-31 05:50:00,
2013-05-30 22:55:00,59.1,56.2,29.76,WNW,294,0.0,1.0,90,0.00,,BKN013,0.00,VWS V13.01,2013-05-31 05:55:00,
2013-05-30 23:00:00,59.3,56.4,29.76,WNW,294,0.0,1.0,90,0.00,,BKN013,0.00,VWS V13.01,2013-05-31 06:00:00,
2013-05-30 23:01:00,59.3,56.4,29.76,NE,44,0.0,3.0,90,0.00,,BKN013,0.00,VWS V13.01,2013-05-31 06:01:00,
2013-05-30 23:06:00,59.3,56.4,29.76,ENE,59,0.0,3.0,90,0.00,,BKN013,0.00,VWS V13.01,2013-05-31 06:06:00,
2013-05-30 23:10:00,59.2,56.3,29.76,ENE,59,0.0,3.0,90,0.00,,BKN013,0.00,VWS V13.01,2013-05-31 06:10:00,
2013-05-30 23:16:00,59.1,56.2,29.76,West,276,0.0,3.0,90,0.00,,BKN013,0.00,VWS V13.01,2013-05-31 06:16:00,
2013-05-30 23:21:00,59.0,56.1,29.76,WNW,284,1.0,3.0,90,0.00,,BKN013,0.00,VWS V13.01,2013-05-31 06:21:00,
2013-05-30 23:26:00,59.0,56.1,29.76,WNW,284,0.0,3.0,90,0.00,,BKN013,0.00,VWS V13.01,2013-05-31 06:26:00,
2013-05-30 23:30:00,59.0,56.1,29.76,WNW,284,0.0,3.0,90,0.00,,BKN013,0.00,VWS V13.01,2013-05-31 06:30:00,
2013-05-30 23:31:00,59.0,56.1,29.76,WNW,284,0.0,0.0,90,0.00,,BKN013,0.00,VWS V13.01,2013-05-31 06:31:00,
2013-05-30 23:36:00,59.0,56.1,29.76,WNW,284,0.0,1.0,90,0.00,,BKN013,0.00,VWS V13.01,2013-05-31 06:36:00,
2013-05-30 23:41:00,59.0,56.1,29.76,WNW,284,0.0,1.0,90,0.00,,BKN013,0.00,VWS V13.01,2013-05-31 06:41:00,
2013-05-30 23:46:00,59.1,56.2,29.76,West,281,0.0,1.0,90,0.00,,BKN013,0.00,VWS V13.01,2013-05-31 06:46:00,
2013-05-30 23:51:00,59.0,56.1,29.76,WNW,284,0.0,3.0,90,0.00,,OVC013,0.00,VWS V13.01,2013-05-31 06:51:00,
2013-05-30 23:56:00,58.9,56.0,29.76,WNW,290,0.0,3.0,90,0.00,,OVC013,0.00,VWS V13.01,2013-05-31 06:56:00,